When you browse on this site, cookies collect data to enhance your experience and personalize the content and advertising you see.
Visit our Privacy Policy to learn more. By continuing to use the site, you agree to this use of cookies and data.
  • In Hungary
  • List of Countries
  • For 7 days
  • Water Temperature
  • Weather Map
  • News
  • Weather Widgets
  • user-avatar
    Login

    Hourly Weather Veselo-Voznesenka

    Today, 22 February, Saturday

    Time Temperature Precipitation Wind Pressure Humidity
    00:00 0°C° 0 mm 5 mps 762 mmHg 98%
    01:00 0°C° 0 mm 5 mps 762 mmHg 98%
    02:00 0°C° 0 mm 5 mps 763 mmHg 98%
    03:00 0°C° 0 mm 5 mps 762 mmHg 98%
    04:00 0°C° 0 mm 5 mps 763 mmHg 98%
    05:00 0°C° 0 mm 5 mps 763 mmHg 98%
    06:00 0°C° 0 mm 5 mps 763 mmHg 98%
    07:00 0°C° 0.1 mm 5 mps 763 mmHg 98%
    08:00 0°C° 0.1 mm 5 mps 764 mmHg 98%
    09:00 0°C° 0 mm 5 mps 764 mmHg 99%
    10:00 0°C° 0.6 mm 5 mps 764 mmHg 99%
    11:00 -1°C° 0.6 mm 5 mps 764 mmHg 99%
    12:00 -1°C° 0.6 mm 5 mps 764 mmHg 99%
    13:00 -1°C° 1 mm 5 mps 764 mmHg 99%
    14:00 -1°C° 1 mm 5 mps 764 mmHg 99%
    15:00 -1°C° 1 mm 5 mps 764 mmHg 99%
    16:00 -1°C° 0.8 mm 4 mps 764 mmHg 99%
    17:00 -1°C° 0.8 mm 4 mps 764 mmHg 99%
    18:00 -1°C° 0.8 mm 4 mps 764 mmHg 99%
    19:00 -1°C° 0.1 mm 4 mps 764 mmHg 99%
    20:00 -1°C° 0.1 mm 4 mps 764 mmHg 99%
    21:00 -1°C° 0.1 mm 4 mps 765 mmHg 99%
    22:00 -1°C° 0 mm 4 mps 764 mmHg 99%
    23:00 0°C° 0 mm 3 mps 764 mmHg 99%

    Tomorrow, 23 February, Sunday

    Time Temperature Precipitation Wind Pressure Humidity
    00:00 0°C° 0 mm 3 mps 764 mmHg 99%
    01:00 0°C° 0 mm 3 mps 764 mmHg 99%
    02:00 0°C° 0 mm 3 mps 764 mmHg 99%
    03:00 0°C° 0 mm 3 mps 764 mmHg 98%
    04:00 0°C° 0 mm 3 mps 764 mmHg 98%
    05:00 -1°C° 0 mm 4 mps 764 mmHg 98%
    06:00 -1°C° 0 mm 4 mps 763 mmHg 98%
    07:00 -1°C° 0 mm 4 mps 764 mmHg 97%
    08:00 -1°C° 0 mm 4 mps 764 mmHg 96%
    09:00 0°C° 0 mm 3 mps 764 mmHg 96%
    10:00 0°C° 0 mm 4 mps 764 mmHg 94%
    11:00 0°C° 0 mm 5 mps 763 mmHg 93%
    12:00 -1°C° 0 mm 6 mps 763 mmHg 92%
    13:00 0°C° 0 mm 7 mps 763 mmHg 90%
    14:00 0°C° 0 mm 7 mps 762 mmHg 88%
    15:00 0°C° 0 mm 8 mps 761 mmHg 85%
    16:00 0°C° 0 mm 8 mps 761 mmHg 84%
    17:00 0°C° 0 mm 9 mps 760 mmHg 82%
    18:00 0°C° 0 mm 9 mps 760 mmHg 81%
    19:00 0°C° 0 mm 9 mps 760 mmHg 82%
    20:00 0°C° 0 mm 9 mps 759 mmHg 84%
    21:00 +1°C° 0 mm 9 mps 759 mmHg 85%
    22:00 +1°C° 0 mm 10 mps 759 mmHg 86%
    23:00 +1°C° 0 mm 10 mps 758 mmHg 87%

    Day after tomorrow, 24 February, Monday

    Time Temperature Precipitation Wind Pressure Humidity
    00:00 +1°C° 0 mm 11 mps 757 mmHg 88%
    01:00 +1°C° 0.1 mm 11 mps 757 mmHg 90%
    02:00 +1°C° 0.1 mm 10 mps 757 mmHg 92%
    03:00 +1°C° 0.1 mm 10 mps 756 mmHg 94%
    04:00 +1°C° 0.2 mm 10 mps 756 mmHg 94%
    05:00 +1°C° 0.2 mm 9 mps 755 mmHg 94%
    06:00 +1°C° 0.2 mm 9 mps 754 mmHg 93%
    07:00 +1°C° 0 mm 10 mps 753 mmHg 92%
    08:00 +1°C° 0 mm 11 mps 752 mmHg 90%
    09:00 0°C° 0 mm 12 mps 752 mmHg 89%
    10:00 0°C° 0.7 mm 13 mps 750 mmHg 92%
    11:00 0°C° 0.7 mm 13 mps 749 mmHg 94%
    12:00 0°C° 0.7 mm 14 mps 748 mmHg 96%
    13:00 0°C° 1.7 mm 15 mps 746 mmHg 96%
    14:00 0°C° 1.7 mm 15 mps 745 mmHg 96%
    15:00 0°C° 1.7 mm 16 mps 744 mmHg 95%
    16:00 +1°C° 1.2 mm 15 mps 743 mmHg 93%
    17:00 +1°C° 1.2 mm 14 mps 742 mmHg 92%
    18:00 +3°C° 1.2 mm 13 mps 741 mmHg 90%
    19:00 +2°C° 0 mm 11 mps 741 mmHg 91%
    20:00 +1°C° 0 mm 9 mps 742 mmHg 92%
    21:00 0°C° 0 mm 8 mps 742 mmHg 93%
    22:00 -2°C° 0.5 mm 10 mps 743 mmHg 93%
    23:00 -2°C° 0.5 mm 13 mps 744 mmHg 93%

    25 February, Tuesday

    Time Temperature Precipitation Wind Pressure Humidity
    00:00 -3°C° 0.5 mm 15 mps 745 mmHg 93%
    01:00 -3°C° 0.1 mm 15 mps 746 mmHg 87%
    02:00 -2°C° 0.1 mm 14 mps 748 mmHg 81%
    03:00 -2°C° 0.1 mm 13 mps 750 mmHg 75%
    04:00 -2°C° 0 mm 12 mps 752 mmHg 75%
    05:00 -3°C° 0 mm 12 mps 753 mmHg 74%
    06:00 -3°C° 0 mm 11 mps 755 mmHg 74%
    07:00 -3°C° 0 mm 10 mps 756 mmHg 72%
    08:00 -3°C° 0 mm 10 mps 758 mmHg 71%
    09:00 -3°C° 0 mm 9 mps 759 mmHg 70%
    10:00 -1°C° 0 mm 9 mps 759 mmHg 67%
    11:00 0°C° 0 mm 8 mps 760 mmHg 64%
    12:00 +2°C° 0 mm 7 mps 760 mmHg 62%
    13:00 +2°C° 0 mm 7 mps 760 mmHg 60%
    14:00 +3°C° 0 mm 7 mps 760 mmHg 59%
    15:00 +3°C° 0 mm 7 mps 761 mmHg 58%
    16:00 +3°C° 0 mm 7 mps 761 mmHg 61%
    17:00 +2°C° 0 mm 6 mps 761 mmHg 64%
    18:00 +2°C° 0 mm 6 mps 761 mmHg 67%
    19:00 +2°C° 0 mm 6 mps 761 mmHg 71%
    20:00 +1°C° 0 mm 6 mps 761 mmHg 74%
    21:00 +1°C° 0 mm 6 mps 761 mmHg 77%
    22:00 +1°C° 0 mm 6 mps 761 mmHg 79%
    23:00 0°C° 0 mm 7 mps 760 mmHg 81%

    26 February, Wednesday

    Time Temperature Precipitation Wind Pressure Humidity
    00:00 0°C° 0 mm 7 mps 760 mmHg 84%
    01:00 0°C° 0 mm 7 mps 760 mmHg 84%
    02:00 0°C° 0 mm 7 mps 760 mmHg 84%
    03:00 0°C° 0 mm 8 mps 759 mmHg 84%
    04:00 0°C° 0 mm 8 mps 759 mmHg 85%
    05:00 0°C° 0 mm 8 mps 759 mmHg 86%
    06:00 +1°C° 0 mm 8 mps 758 mmHg 87%
    07:00 +1°C° 0 mm 8 mps 758 mmHg 86%
    08:00 +1°C° 0 mm 8 mps 758 mmHg 84%
    09:00 +2°C° 0 mm 8 mps 758 mmHg 83%
    10:00 +4°C° 0 mm 8 mps 757 mmHg 78%
    11:00 +4°C° 0 mm 8 mps 757 mmHg 74%
    12:00 +5°C° 0 mm 8 mps 757 mmHg 70%
    13:00 +5°C° 0 mm 8 mps 756 mmHg 67%
    14:00 +5°C° 0 mm 8 mps 756 mmHg 65%
    15:00 +6°C° 0 mm 8 mps 756 mmHg 62%
    16:00 +5°C° 0 mm 7 mps 755 mmHg 65%
    17:00 +5°C° 0 mm 6 mps 755 mmHg 67%
    18:00 +5°C° 0 mm 5 mps 755 mmHg 69%
    19:00 +5°C° 0 mm 5 mps 755 mmHg 71%
    20:00 +5°C° 0 mm 5 mps 755 mmHg 73%
    21:00 +4°C° 0 mm 4 mps 755 mmHg 75%
    22:00 +3°C° 0 mm 5 mps 754 mmHg 72%
    23:00 +3°C° 0 mm 5 mps 754 mmHg 69%

    27 February, Thursday

    Time Temperature Precipitation Wind Pressure Humidity
    00:00 +3°C° 0 mm 6 mps 754 mmHg 66%
    01:00 +3°C° 0 mm 5 mps 754 mmHg 68%
    02:00 +2°C° 0 mm 5 mps 753 mmHg 70%
    03:00 +2°C° 0 mm 5 mps 753 mmHg 72%
    04:00 +2°C° 0 mm 5 mps 753 mmHg 74%
    05:00 +2°C° 0 mm 5 mps 753 mmHg 76%
    06:00 +2°C° 0 mm 5 mps 753 mmHg 79%
    07:00 +3°C° 0 mm 5 mps 753 mmHg 78%
    08:00 +3°C° 0 mm 5 mps 753 mmHg 78%
    09:00 +5°C° 0 mm 4 mps 753 mmHg 78%
    10:00 +6°C° 0 mm 5 mps 752 mmHg 72%
    11:00 +7°C° 0 mm 5 mps 752 mmHg 67%
    12:00 +8°C° 0 mm 5 mps 752 mmHg 62%
    13:00 +9°C° 0 mm 5 mps 752 mmHg 61%
    14:00 +9°C° 0 mm 6 mps 752 mmHg 60%
    15:00 +10°C° 0 mm 7 mps 752 mmHg 59%
    16:00 +9°C° 0 mm 6 mps 752 mmHg 64%
    17:00 +8°C° 0 mm 6 mps 752 mmHg 70%
    18:00 +7°C° 0 mm 5 mps 752 mmHg 75%
    19:00 +7°C° 0 mm 5 mps 752 mmHg 79%
    20:00 +6°C° 0 mm 5 mps 753 mmHg 82%
    21:00 +6°C° 0 mm 5 mps 753 mmHg 86%
    22:00 +6°C° 0 mm 5 mps 753 mmHg 87%
    23:00 +5°C° 0 mm 4 mps 753 mmHg 89%
    Show more